When you browse on this site, cookies collect data to enhance your experience and personalize the content and advertising you see.
Visit our Privacy Policy to learn more. By continuing to use the site, you agree to this use of cookies and data.
  • In Lithuania
  • List of Countries
  • For 7 days
  • Water Temperature
  • Weather Map
  • Weather Widgets
  • user-avatar
    Login

    Hourly Weather Myitkyina

    Today, 18 February, Tuesday

    Time Temperature Precipitation Wind Pressure Humidity
    00:00 +16°C° 0 mm 0 mps 743 mmHg 64%
    01:00 +16°C° 0 mm 0 mps 742 mmHg 66%
    02:00 +15°C° 0 mm 0 mps 742 mmHg 68%
    03:00 +15°C° 0 mm 0 mps 741 mmHg 70%
    04:00 +14°C° 0 mm 0 mps 742 mmHg 72%
    05:00 +14°C° 0 mm 0 mps 742 mmHg 74%
    06:00 +14°C° 0 mm 0 mps 742 mmHg 76%
    07:00 +17°C° 0 mm 0 mps 742 mmHg 65%
    08:00 +22°C° 0 mm 1 mps 743 mmHg 55%
    09:00 +25°C° 0 mm 1 mps 743 mmHg 44%
    10:00 +28°C° 0 mm 1 mps 742 mmHg 38%
    11:00 +31°C° 0 mm 1 mps 742 mmHg 33%
    12:00 +34°C° 0 mm 1 mps 741 mmHg 27%
    13:00 +34°C° 0 mm 1 mps 741 mmHg 26%
    14:00 +34°C° 0 mm 1 mps 740 mmHg 26%
    15:00 +34°C° 0 mm 1 mps 739 mmHg 25%
    16:00 +31°C° 0 mm 1 mps 740 mmHg 31%
    17:00 +28°C° 0 mm 1 mps 740 mmHg 37%
    18:00 +23°C° 0 mm 0 mps 740 mmHg 43%
    19:00 +24°C° 0 mm 1 mps 741 mmHg 49%
    20:00 +22°C° 0 mm 1 mps 741 mmHg 56%
    21:00 +21°C° 0 mm 1 mps 742 mmHg 62%
    22:00 +20°C° 0 mm 1 mps 742 mmHg 69%
    23:00 +19°C° 0 mm 1 mps 742 mmHg 75%

    Tomorrow, 19 February, Wednesday

    Time Temperature Precipitation Wind Pressure Humidity
    00:00 +18°C° 0 mm 1 mps 742 mmHg 82%
    01:00 +18°C° 0 mm 1 mps 742 mmHg 85%
    02:00 +16°C° 0 mm 1 mps 742 mmHg 88%
    03:00 +16°C° 0 mm 1 mps 741 mmHg 91%
    04:00 +15°C° 0 mm 1 mps 742 mmHg 91%
    05:00 +15°C° 0 mm 1 mps 742 mmHg 92%
    06:00 +15°C° 0 mm 1 mps 742 mmHg 92%
    07:00 +19°C° 0 mm 1 mps 743 mmHg 79%
    08:00 +22°C° 0 mm 1 mps 743 mmHg 65%
    09:00 +25°C° 0 mm 1 mps 744 mmHg 52%
    10:00 +28°C° 0 mm 1 mps 743 mmHg 44%
    11:00 +29°C° 0 mm 0 mps 743 mmHg 37%
    12:00 +31°C° 0 mm 0 mps 742 mmHg 29%
    13:00 +31°C° 0 mm 0 mps 741 mmHg 28%
    14:00 +31°C° 0 mm 0 mps 741 mmHg 27%
    15:00 +33°C° 0 mm 1 mps 740 mmHg 26%
    16:00 +30°C° 0 mm 1 mps 740 mmHg 33%
    17:00 +25°C° 0 mm 0 mps 740 mmHg 40%
    18:00 +22°C° 0 mm 0 mps 740 mmHg 47%
    19:00 +21°C° 0 mm 0 mps 741 mmHg 51%
    20:00 +20°C° 0 mm 0 mps 742 mmHg 54%
    21:00 +19°C° 0 mm 0 mps 743 mmHg 58%
    22:00 +18°C° 0 mm 0 mps 743 mmHg 60%
    23:00 +17°C° 0 mm 0 mps 743 mmHg 63%

    Day after tomorrow, 20 February, Thursday

    Time Temperature Precipitation Wind Pressure Humidity
    00:00 +16°C° 0 mm 0 mps 743 mmHg 65%
    01:00 +16°C° 0 mm 0 mps 742 mmHg 67%
    02:00 +15°C° 0 mm 0 mps 742 mmHg 69%
    03:00 +15°C° 0 mm 0 mps 742 mmHg 71%
    04:00 +14°C° 0 mm 0 mps 742 mmHg 72%
    05:00 +14°C° 0 mm 0 mps 743 mmHg 74%
    06:00 +14°C° 0 mm 0 mps 743 mmHg 76%
    07:00 +17°C° 0 mm 0 mps 743 mmHg 64%
    08:00 +22°C° 0 mm 1 mps 744 mmHg 53%
    09:00 +25°C° 0 mm 1 mps 745 mmHg 41%
    10:00 +28°C° 0 mm 1 mps 744 mmHg 35%
    11:00 +31°C° 0 mm 1 mps 744 mmHg 29%
    12:00 +34°C° 0 mm 1 mps 743 mmHg 23%
    13:00 +34°C° 0 mm 1 mps 742 mmHg 22%
    14:00 +34°C° 0 mm 1 mps 742 mmHg 21%
    15:00 +32°C° 0 mm 0 mps 741 mmHg 20%
    16:00 +28°C° 0 mm 0 mps 741 mmHg 26%
    17:00 +25°C° 0 mm 0 mps 742 mmHg 32%
    18:00 +22°C° 0 mm 0 mps 742 mmHg 38%
    19:00 +21°C° 0 mm 0 mps 742 mmHg 42%
    20:00 +20°C° 0 mm 0 mps 743 mmHg 46%
    21:00 +18°C° 0 mm 0 mps 743 mmHg 49%
    22:00 +20°C° 0 mm 1 mps 744 mmHg 53%
    23:00 +19°C° 0 mm 1 mps 744 mmHg 57%

    21 February, Friday

    Time Temperature Precipitation Wind Pressure Humidity
    00:00 +18°C° 0 mm 1 mps 744 mmHg 60%
    01:00 +18°C° 0 mm 1 mps 744 mmHg 63%
    02:00 +16°C° 0 mm 1 mps 744 mmHg 66%
    03:00 +15°C° 0 mm 0 mps 743 mmHg 69%
    04:00 +14°C° 0 mm 0 mps 744 mmHg 71%
    05:00 +14°C° 0 mm 0 mps 744 mmHg 73%
    06:00 +13°C° 0 mm 0 mps 745 mmHg 76%
    07:00 +18°C° 0 mm 1 mps 745 mmHg 65%
    08:00 +21°C° 0 mm 1 mps 746 mmHg 55%
    09:00 +24°C° 0 mm 1 mps 746 mmHg 45%
    10:00 +27°C° 0 mm 1 mps 746 mmHg 39%
    11:00 +30°C° 0 mm 1 mps 746 mmHg 33%
    12:00 +32°C° 0 mm 1 mps 745 mmHg 26%
    19:00 +21°C° 0 mm 0 mps 744 mmHg 39%
    20:00 +19°C° 0 mm 0 mps 745 mmHg 43%
    21:00 +18°C° 0 mm 0 mps 746 mmHg 46%
    22:00 +17°C° 0 mm 0 mps 745 mmHg 48%
    23:00 +17°C° 0 mm 0 mps 745 mmHg 51%

    22 February, Saturday

    Time Temperature Precipitation Wind Pressure Humidity
    00:00 +16°C° 0 mm 0 mps 745 mmHg 53%
    01:00 +15°C° 0 mm 0 mps 745 mmHg 55%
    02:00 +15°C° 0 mm 0 mps 745 mmHg 57%
    03:00 +14°C° 0 mm 0 mps 744 mmHg 59%
    04:00 +14°C° 0 mm 0 mps 744 mmHg 61%
    05:00 +14°C° 0 mm 0 mps 745 mmHg 63%
    06:00 +13°C° 0 mm 0 mps 745 mmHg 65%
    07:00 +17°C° 0 mm 0 mps 745 mmHg 56%
    08:00 +20°C° 0 mm 0 mps 746 mmHg 46%
    09:00 +25°C° 0 mm 1 mps 746 mmHg 37%
    10:00 +28°C° 0 mm 1 mps 746 mmHg 32%
    11:00 +29°C° 0 mm 0 mps 745 mmHg 27%
    12:00 +32°C° 0 mm 0 mps 745 mmHg 22%
    13:00 +32°C° 0 mm 0 mps 744 mmHg 21%
    14:00 +32°C° 0 mm 0 mps 743 mmHg 20%
    15:00 +32°C° 0 mm 0 mps 742 mmHg 19%
    16:00 +29°C° 0 mm 0 mps 743 mmHg 25%
    17:00 +26°C° 0 mm 0 mps 743 mmHg 31%
    18:00 +23°C° 0 mm 0 mps 743 mmHg 37%
    19:00 +22°C° 0 mm 0 mps 744 mmHg 40%
    20:00 +20°C° 0 mm 0 mps 744 mmHg 42%
    21:00 +19°C° 0 mm 0 mps 745 mmHg 45%
    22:00 +19°C° 0 mm 0 mps 745 mmHg 47%
    23:00 +18°C° 0 mm 0 mps 744 mmHg 48%

    23 February, Sunday

    Time Temperature Precipitation Wind Pressure Humidity
    00:00 +17°C° 0 mm 0 mps 744 mmHg 50%
    01:00 +17°C° 0 mm 0 mps 744 mmHg 52%
    02:00 +16°C° 0 mm 0 mps 744 mmHg 54%
    03:00 +16°C° 0 mm 0 mps 743 mmHg 56%
    04:00 +15°C° 0 mm 0 mps 744 mmHg 57%
    05:00 +15°C° 0 mm 0 mps 744 mmHg 59%
    06:00 +14°C° 0 mm 0 mps 744 mmHg 60%
    07:00 +18°C° 0 mm 0 mps 744 mmHg 51%
    08:00 +22°C° 0 mm 0 mps 745 mmHg 42%
    09:00 +27°C° 0 mm 1 mps 745 mmHg 33%
    10:00 +30°C° 0 mm 1 mps 745 mmHg 29%
    11:00 +32°C° 0 mm 1 mps 744 mmHg 24%
    12:00 +35°C° 0 mm 1 mps 744 mmHg 20%
    13:00 +33°C° 0 mm 0 mps 743 mmHg 19%
    14:00 +33°C° 0 mm 0 mps 742 mmHg 19%
    15:00 +33°C° 0 mm 0 mps 741 mmHg 18%
    16:00 +30°C° 0 mm 0 mps 741 mmHg 24%
    17:00 +27°C° 0 mm 0 mps 741 mmHg 30%
    18:00 +24°C° 0 mm 0 mps 742 mmHg 35%
    19:00 +23°C° 0 mm 0 mps 742 mmHg 38%
    20:00 +24°C° 0 mm 1 mps 743 mmHg 41%
    21:00 +23°C° 0 mm 1 mps 743 mmHg 44%
    22:00 +22°C° 0 mm 1 mps 743 mmHg 48%
    23:00 +21°C° 0 mm 1 mps 743 mmHg 52%
    Show more